Volver al catálogo

COSMOS 1670

ActivoMilitarLEO
NORAD 15930·PAYLOAD·🇷🇺 Russia

Lanzado Aug 1, 1985 desde Baikonur Cosmodrome

Loading…

Próximos Pases (próximas 24 horas)

TLE

ActualizadoSource: Space-Track

Época: Sep 14, 2026, 18:36 UTC

1 15930U 85064A   26257.77515954 -.00000075  00000-0  12669-4 0  9997
2 15930  64.9381 267.4778 0061065   5.8070 354.3684 13.83883159 66150

Sigue COSMOS 1670 en tiempo real con AllMySat

Download on the App Store